Time,TemperatureF,DewpointF,PressureIn,WindDirection,WindDirectionDegrees,WindSpeedMPH,WindSpeedGustMPH,Humidity,HourlyPrecipIn,Conditions,Clouds,dailyrainin,SoftwareType,DateUTC
2013-04-28 00:00:00,55.6,32.3,30.28,SSW,198,4.0,8.0,41,0.00,,,0.00,VWS V14.01,2013-04-28 04:00:00,
2013-04-28 00:01:00,55.6,32.3,30.28,SW,217,0.0,8.0,41,0.00,,,0.00,VWS V14.01,2013-04-28 04:01:00,
2013-04-28 00:06:00,55.5,32.2,30.28,SW,225,5.0,9.0,41,0.00,,,0.00,VWS V14.01,2013-04-28 04:06:00,
2013-04-28 00:11:00,55.5,32.2,30.28,West,269,7.0,9.0,41,0.00,,,0.00,VWS V14.01,2013-04-28 04:11:00,
2013-04-28 00:15:00,55.3,32.0,30.29,WSW,239,0.0,9.0,41,0.00,,,0.00,VWS V14.01,2013-04-28 04:15:00,
2013-04-28 00:16:00,55.3,32.0,30.29,WSW,254,2.0,6.0,41,0.00,,,0.00,VWS V14.01,2013-04-28 04:16:00,
2013-04-28 00:21:00,55.2,31.9,30.29,SSW,209,0.0,11.0,41,0.00,,,0.00,VWS V14.01,2013-04-28 04:21:00,
2013-04-28 00:26:00,55.2,31.9,30.29,WSW,237,0.0,11.0,41,0.00,,,0.00,VWS V14.01,2013-04-28 04:26:00,
2013-04-28 00:30:00,55.2,31.9,30.29,West,268,0.0,11.0,41,0.00,,,0.00,VWS V14.01,2013-04-28 04:30:00,
2013-04-28 00:31:00,55.2,31.9,30.29,West,277,8.0,8.0,41,0.00,,,0.00,VWS V14.01,2013-04-28 04:31:00,
2013-04-28 00:36:00,55.2,31.9,30.29,West,277,5.0,11.0,41,0.00,,,0.00,VWS V14.01,2013-04-28 04:36:00,
2013-04-28 00:41:00,55.0,31.8,30.29,West,262,0.0,11.0,41,0.00,,,0.00,VWS V14.01,2013-04-28 04:41:00,
2013-04-28 00:45:00,55.0,32.3,30.29,WSW,252,0.0,11.0,42,0.00,,,0.00,VWS V14.01,2013-04-28 04:45:00,
2013-04-28 00:46:00,54.9,32.3,30.29,West,267,0.0,0.0,42,0.00,,,0.00,VWS V14.01,2013-04-28 04:46:00,
2013-04-28 00:51:00,54.6,33.1,30.29,West,277,0.0,4.0,44,0.00,,,0.00,VWS V14.01,2013-04-28 04:51:00,
2013-04-28 00:56:00,54.1,33.2,30.29,West,277,0.0,4.0,45,0.00,,,0.00,VWS V14.01,2013-04-28 04:56:00,
2013-04-28 01:00:00,54.0,33.2,30.29,West,277,0.0,4.0,45,0.00,,,0.00,VWS V14.01,2013-04-28 05:00:00,
2013-04-28 01:01:00,53.8,33.0,30.29,West,277,0.0,0.0,45,0.00,,,0.00,VWS V14.01,2013-04-28 05:01:00,
2013-04-28 01:06:00,53.5,34.3,30.29,West,277,0.0,0.0,48,0.00,,,0.00,VWS V14.01,2013-04-28 05:06:00,
2013-04-28 01:11:00,53.4,33.7,30.29,West,277,0.0,0.0,47,0.00,,,0.00,VWS V14.01,2013-04-28 05:11:00,
2013-04-28 01:15:00,53.2,33.5,30.29,West,277,0.0,0.0,47,0.00,,,0.00,VWS V14.01,2013-04-28 05:15:00,
2013-04-28 01:16:00,53.1,35.0,30.29,West,277,0.0,0.0,50,0.00,,,0.00,VWS V14.01,2013-04-28 05:16:00,
2013-04-28 01:21:00,53.0,37.3,30.29,West,277,0.0,0.0,55,0.00,,,0.00,VWS V14.01,2013-04-28 05:21:00,
2013-04-28 01:26:00,52.4,35.3,30.29,West,277,0.0,0.0,52,0.00,,,0.00,VWS V14.01,2013-04-28 05:26:00,
2013-04-28 01:30:00,52.1,36.0,30.28,WNW,300,0.0,0.0,54,0.00,,,0.00,VWS V14.01,2013-04-28 05:30:00,
2013-04-28 01:31:00,51.8,35.7,30.28,WNW,302,0.0,0.0,54,0.00,,,0.00,VWS V14.01,2013-04-28 05:31:00,
2013-04-28 01:36:00,51.3,35.7,30.28,WNW,302,0.0,0.0,55,0.00,,,0.00,VWS V14.01,2013-04-28 05:36:00,
2013-04-28 01:41:00,51.0,35.4,30.28,WNW,302,0.0,0.0,55,0.00,,,0.00,VWS V14.01,2013-04-28 05:41:00,
2013-04-28 01:45:00,50.9,35.3,30.28,WNW,302,0.0,0.0,55,0.00,,,0.00,VWS V14.01,2013-04-28 05:45:00,
2013-04-28 01:46:00,50.7,35.1,30.28,WNW,302,0.0,0.0,55,0.00,,,0.00,VWS V14.01,2013-04-28 05:46:00,
2013-04-28 01:51:00,50.3,35.7,30.28,WNW,303,0.0,0.0,57,0.00,,,0.00,VWS V14.01,2013-04-28 05:51:00,
2013-04-28 01:55:00,50.0,35.4,30.28,NW,304,0.0,0.0,57,0.00,,,0.00,VWS V14.01,2013-04-28 05:55:00,
2013-04-28 02:00:00,49.7,35.1,30.28,NW,304,0.0,0.0,57,0.00,,,0.00,VWS V14.01,2013-04-28 06:00:00,
2013-04-28 02:05:00,49.4,34.4,30.28,NW,304,0.0,0.0,56,0.00,,,0.00,VWS V14.01,2013-04-28 06:05:00,
2013-04-28 02:10:00,49.3,35.6,30.28,NW,304,0.0,0.0,59,0.00,,,0.00,VWS V14.01,2013-04-28 06:10:00,
2013-04-28 02:15:00,49.0,36.6,30.27,NW,304,0.0,0.0,62,0.00,,,0.00,VWS V14.01,2013-04-28 06:15:00,
2013-04-28 02:20:00,48.7,36.3,30.27,NW,304,0.0,0.0,62,0.00,,,0.00,VWS V14.01,2013-04-28 06:20:00,
2013-04-28 02:26:00,48.7,36.3,30.27,NW,304,0.0,0.0,62,0.00,,,0.00,VWS V14.01,2013-04-28 06:26:00,
2013-04-28 02:30:00,47.9,36.7,30.27,NW,304,0.0,0.0,65,0.00,,,0.00,VWS V14.01,2013-04-28 06:30:00,
2013-04-28 02:31:00,47.9,36.7,30.27,NW,304,0.0,0.0,65,0.00,,,0.00,VWS V14.01,2013-04-28 06:31:00,
2013-04-28 02:36:00,47.5,35.9,30.27,NW,304,0.0,0.0,64,0.00,,,0.00,VWS V14.01,2013-04-28 06:36:00,
2013-04-28 02:41:00,47.2,35.7,30.27,NW,304,0.0,0.0,64,0.00,,,0.00,VWS V14.01,2013-04-28 06:41:00,
2013-04-28 02:45:00,47.2,36.0,30.26,West,270,0.0,0.0,65,0.00,,,0.00,VWS V14.01,2013-04-28 06:45:00,
2013-04-28 02:46:00,47.0,36.2,30.26,NW,304,0.0,0.0,66,0.00,,,0.00,VWS V14.01,2013-04-28 06:46:00,
2013-04-28 02:51:00,46.7,36.3,30.26,NW,304,0.0,0.0,67,0.00,,,0.00,VWS V14.01,2013-04-28 06:51:00,
2013-04-28 02:56:00,46.6,36.2,30.26,NW,304,0.0,0.0,67,0.00,,,0.00,VWS V14.01,2013-04-28 06:56:00,
2013-04-28 03:00:00,46.3,36.3,30.26,NW,309,0.0,0.0,68,0.00,,,0.00,VWS V14.01,2013-04-28 07:00:00,
2013-04-28 03:05:00,46.0,36.0,30.26,NW,309,0.0,0.0,68,0.00,,,0.00,VWS V14.01,2013-04-28 07:05:00,
2013-04-28 03:10:00,45.9,36.3,30.26,NW,309,0.0,0.0,69,0.00,,,0.00,VWS V14.01,2013-04-28 07:10:00,
2013-04-28 03:15:00,45.7,35.8,30.26,NW,309,0.0,0.0,68,0.00,,,0.00,VWS V14.01,2013-04-28 07:15:00,
2013-04-28 03:20:00,45.6,35.7,30.26,NW,309,0.0,0.0,68,0.00,,,0.00,VWS V14.01,2013-04-28 07:20:00,
2013-04-28 03:25:00,45.4,35.8,30.26,NW,309,0.0,0.0,69,0.00,,,0.00,VWS V14.01,2013-04-28 07:25:00,
2013-04-28 03:30:00,45.3,35.7,30.26,NW,309,0.0,0.0,69,0.00,,,0.00,VWS V14.01,2013-04-28 07:30:00,
2013-04-28 03:35:00,45.1,35.5,30.26,NW,309,0.0,0.0,69,0.00,,,0.00,VWS V14.01,2013-04-28 07:35:00,
2013-04-28 03:40:00,45.1,35.5,30.26,NW,309,0.0,0.0,69,0.00,,,0.00,VWS V14.01,2013-04-28 07:40:00,
2013-04-28 03:45:00,45.0,35.5,30.26,NW,309,0.0,0.0,69,0.00,,,0.00,VWS V14.01,2013-04-28 07:45:00,
2013-04-28 03:50:00,44.8,35.3,30.26,NW,309,0.0,0.0,69,0.00,,,0.00,VWS V14.01,2013-04-28 07:50:00,
2013-04-28 03:55:00,44.7,35.2,30.26,NW,309,0.0,0.0,69,0.00,,,0.00,VWS V14.01,2013-04-28 07:55:00,
2013-04-28 04:00:00,44.7,35.5,30.26,NW,309,0.0,0.0,70,0.00,,,0.00,VWS V14.01,2013-04-28 08:00:00,
2013-04-28 04:05:00,44.5,35.7,30.26,NW,309,0.0,0.0,71,0.00,,,0.00,VWS V14.01,2013-04-28 08:05:00,
2013-04-28 04:10:00,44.4,36.0,30.26,NW,309,0.0,0.0,72,0.00,,,0.00,VWS V14.01,2013-04-28 08:10:00,
2013-04-28 04:15:00,44.1,36.0,30.26,NW,309,0.0,0.0,73,0.00,,,0.00,VWS V14.01,2013-04-28 08:15:00,
2013-04-28 04:20:00,43.8,35.4,30.26,NW,309,0.0,0.0,72,0.00,,,0.00,VWS V14.01,2013-04-28 08:20:00,
2013-04-28 04:25:00,43.7,35.3,30.26,NW,309,0.0,0.0,72,0.00,,,0.00,VWS V14.01,2013-04-28 08:25:00,
2013-04-28 04:30:00,43.5,35.4,30.26,NW,309,0.0,0.0,73,0.00,,,0.00,VWS V14.01,2013-04-28 08:30:00,
2013-04-28 04:35:00,43.4,35.3,30.26,NW,309,0.0,0.0,73,0.00,,,0.00,VWS V14.01,2013-04-28 08:35:00,
2013-04-28 04:40:00,43.2,35.1,30.26,NW,309,0.0,0.0,73,0.00,,,0.00,VWS V14.01,2013-04-28 08:40:00,
2013-04-28 04:45:00,43.2,35.1,30.26,NW,309,0.0,0.0,73,0.00,,,0.00,VWS V14.01,2013-04-28 08:45:00,
2013-04-28 04:50:00,43.1,35.7,30.26,NW,309,0.0,0.0,75,0.00,,,0.00,VWS V14.01,2013-04-28 08:50:00,
2013-04-28 04:55:00,43.0,35.6,30.26,NW,309,0.0,0.0,75,0.00,,,0.00,VWS V14.01,2013-04-28 08:55:00,
2013-04-28 05:00:00,42.7,35.3,30.26,NW,309,0.0,0.0,75,0.00,,,0.00,VWS V14.01,2013-04-28 09:00:00,
2013-04-28 05:05:00,42.7,35.3,30.26,NW,309,0.0,0.0,75,0.00,,,0.00,VWS V14.01,2013-04-28 09:05:00,
2013-04-28 05:10:00,42.5,35.2,30.26,NW,309,0.0,0.0,75,0.00,,,0.00,VWS V14.01,2013-04-28 09:10:00,
2013-04-28 05:15:00,42.4,35.0,30.26,NW,309,0.0,0.0,75,0.00,,,0.00,VWS V14.01,2013-04-28 09:15:00,
2013-04-28 05:20:00,42.4,35.0,30.26,NW,309,0.0,0.0,75,0.00,,,0.00,VWS V14.01,2013-04-28 09:20:00,
2013-04-28 05:25:00,42.2,35.2,30.26,NW,309,0.0,0.0,76,0.00,,,0.00,VWS V14.01,2013-04-28 09:25:00,
2013-04-28 05:30:00,42.2,35.2,30.26,NW,309,0.0,0.0,76,0.00,,,0.00,VWS V14.01,2013-04-28 09:30:00,
2013-04-28 05:35:00,42.2,35.2,30.26,NW,309,0.0,0.0,76,0.00,,,0.00,VWS V14.01,2013-04-28 09:35:00,
2013-04-28 05:40:00,42.1,35.4,30.26,NW,309,0.0,0.0,77,0.00,,,0.00,VWS V14.01,2013-04-28 09:40:00,
2013-04-28 05:45:00,42.1,35.4,30.26,NW,309,0.0,0.0,77,0.00,,,0.00,VWS V14.01,2013-04-28 09:45:00,
2013-04-28 05:50:00,42.0,35.3,30.26,NW,309,0.0,0.0,77,0.00,,,0.00,VWS V14.01,2013-04-28 09:50:00,
2013-04-28 05:55:00,42.0,35.7,30.26,NW,309,0.0,0.0,78,0.00,,,0.00,VWS V14.01,2013-04-28 09:55:00,
2013-04-28 06:00:00,41.8,35.5,30.27,NW,309,0.0,0.0,78,0.00,,,0.00,VWS V14.01,2013-04-28 10:00:00,
2013-04-28 06:05:00,41.8,35.5,30.27,NW,309,0.0,0.0,78,0.00,,,0.00,VWS V14.01,2013-04-28 10:05:00,
2013-04-28 06:12:00,41.8,35.8,30.27,NW,309,0.0,0.0,79,0.00,,,0.00,VWS V14.01,2013-04-28 10:12:00,
2013-04-28 06:15:00,41.7,35.7,30.26,NW,309,0.0,0.0,79,0.00,,,0.00,VWS V14.01,2013-04-28 10:15:00,
2013-04-28 06:17:00,41.5,35.5,30.26,NW,309,0.0,0.0,79,0.00,,,0.00,VWS V14.01,2013-04-28 10:17:00,
2013-04-28 06:22:00,41.4,35.7,30.26,NW,309,0.0,0.0,80,0.00,,,0.00,VWS V14.01,2013-04-28 10:22:00,
2013-04-28 06:27:00,41.2,35.5,30.26,NW,309,0.0,0.0,80,0.00,,,0.00,VWS V14.01,2013-04-28 10:27:00,
2013-04-28 06:30:00,41.2,35.5,30.27,NW,309,0.0,0.0,80,0.00,,,0.00,VWS V14.01,2013-04-28 10:30:00,
2013-04-28 06:32:00,41.2,35.5,30.27,NW,309,0.0,0.0,80,0.00,,,0.00,VWS V14.01,2013-04-28 10:32:00,
2013-04-28 06:37:00,41.5,36.1,30.27,NW,309,0.0,0.0,81,0.00,,,0.00,VWS V14.01,2013-04-28 10:37:00,
2013-04-28 06:42:00,42.1,36.7,30.27,NW,309,0.0,0.0,81,0.00,,,0.00,VWS V14.01,2013-04-28 10:42:00,
2013-04-28 06:45:00,42.0,36.3,30.27,NW,309,0.0,0.0,80,0.00,,,0.00,VWS V14.01,2013-04-28 10:45:00,
2013-04-28 06:47:00,42.0,36.6,30.27,NW,309,0.0,0.0,81,0.00,,,0.00,VWS V14.01,2013-04-28 10:47:00,
2013-04-28 06:52:00,41.7,36.3,30.27,NW,309,0.0,0.0,81,0.00,,,0.00,VWS V14.01,2013-04-28 10:52:00,
2013-04-28 06:57:00,42.1,36.7,30.27,NW,309,0.0,0.0,81,0.00,,,0.00,VWS V14.01,2013-04-28 10:57:00,
2013-04-28 07:00:00,42.5,36.8,30.27,NW,309,0.0,0.0,80,0.00,,,0.00,VWS V14.01,2013-04-28 11:00:00,
2013-04-28 07:02:00,42.7,36.7,30.27,NW,309,0.0,0.0,79,0.00,,,0.00,VWS V14.01,2013-04-28 11:02:00,
2013-04-28 07:07:00,43.1,36.7,30.27,NW,309,0.0,0.0,78,0.00,,,0.00,VWS V14.01,2013-04-28 11:07:00,
2013-04-28 07:12:00,43.1,37.0,30.27,NW,309,0.0,0.0,79,0.00,,,0.00,VWS V14.01,2013-04-28 11:12:00,
2013-04-28 07:15:00,43.0,36.9,30.28,NW,309,0.0,0.0,79,0.00,,,0.00,VWS V14.01,2013-04-28 11:15:00,
2013-04-28 07:17:00,42.8,36.4,30.28,NW,309,0.0,0.0,78,0.00,,,0.00,VWS V14.01,2013-04-28 11:17:00,
2013-04-28 07:22:00,42.8,36.4,30.28,NW,309,0.0,0.0,78,0.00,,,0.00,VWS V14.01,2013-04-28 11:22:00,
2013-04-28 07:26:00,43.4,36.3,30.28,NW,309,0.0,0.0,76,0.00,,,0.00,VWS V14.01,2013-04-28 11:26:00,
2013-04-28 07:30:00,43.8,36.4,30.29,NW,309,0.0,0.0,75,0.00,,,0.00,VWS V14.01,2013-04-28 11:30:00,
2013-04-28 07:31:00,44.1,36.7,30.29,NW,309,0.0,0.0,75,0.00,,,0.00,VWS V14.01,2013-04-28 11:31:00,
2013-04-28 07:36:00,44.4,36.7,30.29,NW,309,0.0,0.0,74,0.00,,,0.00,VWS V14.01,2013-04-28 11:36:00,
2013-04-28 07:42:00,45.0,36.5,30.29,NW,309,0.0,0.0,72,0.00,,,0.00,VWS V14.01,2013-04-28 11:42:00,
2013-04-28 07:45:00,45.3,36.5,30.30,NW,309,0.0,0.0,71,0.00,,,0.00,VWS V14.01,2013-04-28 11:45:00,
2013-04-28 07:47:00,45.4,36.6,30.30,NW,309,0.0,0.0,71,0.00,,,0.00,VWS V14.01,2013-04-28 11:47:00,
2013-04-28 07:52:00,46.1,36.9,30.30,NW,309,0.0,0.0,70,0.00,,,0.00,VWS V14.01,2013-04-28 11:52:00,
2013-04-28 07:56:00,46.9,37.3,30.30,NW,309,0.0,0.0,69,0.00,,,0.00,VWS V14.01,2013-04-28 11:56:00,
2013-04-28 08:00:00,47.2,37.6,30.30,NW,309,0.0,0.0,69,0.00,,,0.00,VWS V14.01,2013-04-28 12:00:00,
2013-04-28 08:01:00,47.5,37.5,30.30,NW,309,0.0,0.0,68,0.00,,,0.00,VWS V14.01,2013-04-28 12:01:00,
2013-04-28 08:06:00,48.2,37.0,30.30,NW,309,0.0,0.0,65,0.00,,,0.00,VWS V14.01,2013-04-28 12:06:00,
2013-04-28 08:11:00,48.7,36.7,30.30,NW,309,0.0,0.0,63,0.00,,,0.00,VWS V14.01,2013-04-28 12:11:00,
2013-04-28 08:15:00,49.1,37.1,30.30,NW,309,0.0,0.0,63,0.00,,,0.00,VWS V14.01,2013-04-28 12:15:00,
2013-04-28 08:16:00,49.5,37.4,30.30,NW,309,0.0,0.0,63,0.00,,,0.00,VWS V14.01,2013-04-28 12:16:00,
2013-04-28 08:21:00,50.0,37.5,30.30,NW,309,0.0,1.0,62,0.00,,,0.00,VWS V14.01,2013-04-28 12:21:00,
2013-04-28 08:26:00,50.4,37.9,30.30,NW,309,0.0,1.0,62,0.00,,,0.00,VWS V14.01,2013-04-28 12:26:00,
2013-04-28 08:30:00,50.7,37.3,30.30,NW,308,0.0,1.0,60,0.00,,,0.00,VWS V14.01,2013-04-28 12:30:00,
2013-04-28 08:31:00,50.9,36.7,30.30,NW,308,0.0,0.0,58,0.00,,,0.00,VWS V14.01,2013-04-28 12:31:00,
2013-04-28 08:36:00,51.3,36.2,30.30,West,279,0.0,5.0,56,0.00,,,0.00,VWS V14.01,2013-04-28 12:36:00,
2013-04-28 08:41:00,51.8,35.7,30.30,West,277,0.0,5.0,54,0.00,,,0.00,VWS V14.01,2013-04-28 12:41:00,
2013-04-28 08:45:00,52.1,36.9,30.30,West,277,0.0,5.0,56,0.00,,,0.00,VWS V14.01,2013-04-28 12:45:00,
2013-04-28 08:46:00,52.7,37.9,30.30,West,277,0.0,1.0,57,0.00,,,0.00,VWS V14.01,2013-04-28 12:46:00,
2013-04-28 08:51:00,53.0,38.2,30.30,West,281,0.0,5.0,57,0.00,,,0.00,VWS V14.01,2013-04-28 12:51:00,
2013-04-28 08:56:00,53.7,37.0,30.30,West,280,0.0,5.0,53,0.00,,,0.00,VWS V14.01,2013-04-28 12:56:00,
2013-04-28 09:00:00,54.0,36.8,30.30,West,280,0.0,5.0,52,0.00,,,0.00,VWS V14.01,2013-04-28 13:00:00,
2013-04-28 09:01:00,54.3,37.5,30.30,West,270,0.0,0.0,53,0.00,,,0.00,VWS V14.01,2013-04-28 13:01:00,
2013-04-28 09:06:00,55.2,37.9,30.30,West,270,2.0,2.0,52,0.00,,,0.00,VWS V14.01,2013-04-28 13:06:00,
2013-04-28 09:11:00,56.1,38.7,30.30,West,271,3.0,5.0,52,0.00,,,0.00,VWS V14.01,2013-04-28 13:11:00,
2013-04-28 09:15:00,56.1,37.7,30.30,West,274,0.0,5.0,50,0.00,,,0.00,VWS V14.01,2013-04-28 13:15:00,
2013-04-28 09:16:00,56.2,38.3,30.30,West,274,0.0,4.0,51,0.00,,,0.00,VWS V14.01,2013-04-28 13:16:00,
2013-04-28 09:21:00,57.1,38.1,30.30,West,279,0.0,4.0,49,0.00,,,0.00,VWS V14.01,2013-04-28 13:21:00,
2013-04-28 09:26:00,58.5,38.4,30.30,WNW,286,0.0,4.0,47,0.00,,,0.00,VWS V14.01,2013-04-28 13:26:00,
2013-04-28 09:30:00,58.5,38.4,30.29,WNW,286,0.0,4.0,47,0.00,,,0.00,VWS V14.01,2013-04-28 13:30:00,
2013-04-28 09:31:00,58.3,37.6,30.29,WNW,286,0.0,1.0,46,0.00,,,0.00,VWS V14.01,2013-04-28 13:31:00,
2013-04-28 09:36:00,59.1,37.8,30.29,WNW,283,6.0,7.0,45,0.00,,,0.00,VWS V14.01,2013-04-28 13:36:00,
2013-04-28 09:41:00,59.1,36.0,30.29,WNW,284,0.0,7.0,42,0.00,,,0.00,VWS V14.01,2013-04-28 13:41:00,
2013-04-28 09:45:00,59.8,36.1,30.29,WNW,286,0.0,7.0,41,0.00,,,0.00,VWS V14.01,2013-04-28 13:45:00,
2013-04-28 09:46:00,60.0,36.2,30.29,WNW,286,0.0,0.0,41,0.00,,,0.00,VWS V14.01,2013-04-28 13:46:00,
2013-04-28 09:51:00,60.1,35.1,30.29,SW,234,0.0,0.0,39,0.00,,,0.00,VWS V14.01,2013-04-28 13:51:00,
2013-04-28 09:57:00,60.1,35.1,30.29,SW,234,0.0,0.0,39,0.00,,,0.00,VWS V14.01,2013-04-28 13:57:00,
2013-04-28 10:00:00,60.8,35.1,30.29,NNW,327,0.0,1.0,38,0.00,,,0.00,VWS V14.01,2013-04-28 14:00:00,
2013-04-28 10:02:00,60.9,35.1,30.29,WNW,288,0.0,5.0,38,0.00,,,0.00,VWS V14.01,2013-04-28 14:02:00,
2013-04-28 10:07:00,60.8,34.4,30.29,West,267,4.0,8.0,37,0.00,,,0.00,VWS V14.01,2013-04-28 14:07:00,
2013-04-28 10:12:00,60.8,35.1,30.29,West,275,0.0,8.0,38,0.00,,,0.00,VWS V14.01,2013-04-28 14:12:00,
2013-04-28 10:15:00,60.9,35.2,30.29,WSW,250,0.0,8.0,38,0.00,,,0.00,VWS V14.01,2013-04-28 14:15:00,
2013-04-28 10:17:00,61.7,36.5,30.29,West,269,0.0,5.0,39,0.00,,,0.00,VWS V14.01,2013-04-28 14:17:00,
2013-04-28 10:22:00,62.2,35.6,30.29,West,280,6.0,7.0,37,0.00,,,0.00,VWS V14.01,2013-04-28 14:22:00,
2013-04-28 10:27:00,62.3,35.0,30.29,WNW,290,0.0,7.0,36,0.00,,,0.00,VWS V14.01,2013-04-28 14:27:00,
2013-04-28 10:30:00,62.5,35.2,30.28,West,280,0.0,7.0,36,0.00,,,0.00,VWS V14.01,2013-04-28 14:30:00,
2013-04-28 10:32:00,63.0,34.9,30.28,NW,315,0.0,1.0,35,0.00,,,0.00,VWS V14.01,2013-04-28 14:32:00,
2013-04-28 10:37:00,63.3,36.6,30.28,West,262,4.0,5.0,37,0.00,,,0.00,VWS V14.01,2013-04-28 14:37:00,
2013-04-28 10:42:00,63.1,35.7,30.28,WNW,302,1.0,6.0,36,0.00,,,0.00,VWS V14.01,2013-04-28 14:42:00,
2013-04-28 10:45:00,63.6,36.9,30.28,West,270,7.0,7.0,37,0.00,,,0.00,VWS V14.01,2013-04-28 14:45:00,
2013-04-28 10:47:00,63.6,34.0,30.28,West,266,2.0,9.0,33,0.00,,,0.00,VWS V14.01,2013-04-28 14:47:00,
2013-04-28 10:52:00,65.4,34.0,30.28,WNW,288,0.0,9.0,31,0.00,,,0.00,VWS V14.01,2013-04-28 14:52:00,
2013-04-28 10:57:00,65.2,36.2,30.28,NW,312,3.0,9.0,34,0.00,,,0.00,VWS V14.01,2013-04-28 14:57:00,
2013-04-28 11:00:00,65.4,34.8,30.27,West,274,6.0,9.0,32,0.00,,,0.00,VWS V14.01,2013-04-28 15:00:00,
2013-04-28 11:02:00,65.2,35.4,30.27,West,265,1.0,7.0,33,0.00,,,0.00,VWS V14.01,2013-04-28 15:02:00,
2013-04-28 11:07:00,65.7,35.1,30.27,SW,219,0.0,7.0,32,0.00,,,0.00,VWS V14.01,2013-04-28 15:07:00,
2013-04-28 11:12:00,66.2,35.5,30.27,NW,321,5.0,7.0,32,0.00,,,0.00,VWS V14.01,2013-04-28 15:12:00,
2013-04-28 11:15:00,66.0,34.5,30.27,NW,319,0.0,7.0,31,0.00,,,0.00,VWS V14.01,2013-04-28 15:15:00,
2013-04-28 11:17:00,66.7,37.5,30.27,NNW,346,0.0,0.0,34,0.00,,,0.00,VWS V14.01,2013-04-28 15:17:00,
2013-04-28 11:22:00,67.2,34.8,30.27,West,275,0.0,7.0,30,0.00,,,0.00,VWS V14.01,2013-04-28 15:22:00,
2013-04-28 11:27:00,66.8,37.6,30.27,West,275,5.0,8.0,34,0.00,,,0.00,VWS V14.01,2013-04-28 15:27:00,
2013-04-28 11:30:00,67.0,36.2,30.27,WSW,248,2.0,8.0,32,0.00,,,0.00,VWS V14.01,2013-04-28 15:30:00,
2013-04-28 11:32:00,67.2,36.4,30.27,WSW,243,0.0,8.0,32,0.00,,,0.00,VWS V14.01,2013-04-28 15:32:00,
2013-04-28 11:37:00,68.7,36.0,30.27,NW,310,0.0,8.0,30,0.00,,,0.00,VWS V14.01,2013-04-28 15:37:00,
2013-04-28 11:42:00,68.2,33.9,30.27,NE,40,0.0,8.0,28,0.00,,,0.00,VWS V14.01,2013-04-28 15:42:00,
2013-04-28 11:45:00,68.0,33.7,30.27,NNE,30,7.0,8.0,28,0.00,,,0.00,VWS V14.01,2013-04-28 15:45:00,
2013-04-28 11:47:00,67.5,34.2,30.27,WSW,238,6.0,11.0,29,0.00,,,0.00,VWS V14.01,2013-04-28 15:47:00,
2013-04-28 11:52:00,67.2,33.0,30.27,WNW,298,6.0,12.0,28,0.00,,,0.00,VWS V14.01,2013-04-28 15:52:00,
2013-04-28 11:57:00,68.2,32.0,30.27,SW,236,9.0,15.0,26,0.00,,,0.00,VWS V14.01,2013-04-28 15:57:00,
2013-04-28 12:00:00,68.0,32.8,30.27,WSW,240,12.0,15.0,27,0.00,,,0.00,VWS V14.01,2013-04-28 16:00:00,
2013-04-28 12:02:00,67.5,32.4,30.27,WNW,285,6.0,12.0,27,0.00,,,0.00,VWS V14.01,2013-04-28 16:02:00,
2013-04-28 12:07:00,67.7,31.6,30.27,West,259,8.0,12.0,26,0.00,,,0.00,VWS V14.01,2013-04-28 16:07:00,
2013-04-28 12:12:00,68.2,32.0,30.27,WNW,290,0.0,13.0,26,0.00,,,0.00,VWS V14.01,2013-04-28 16:12:00,
2013-04-28 12:15:00,68.0,31.9,30.26,West,267,12.0,15.0,26,0.00,,,0.00,VWS V14.01,2013-04-28 16:15:00,
2013-04-28 12:17:00,68.2,32.0,30.26,NNW,333,6.0,12.0,26,0.00,,,0.00,VWS V14.01,2013-04-28 16:17:00,
2013-04-28 12:22:00,68.5,33.2,30.26,WSW,249,8.0,12.0,27,0.00,,,0.00,VWS V14.01,2013-04-28 16:22:00,
2013-04-28 12:27:00,68.0,32.8,30.26,SW,231,7.0,15.0,27,0.00,,,0.00,VWS V14.01,2013-04-28 16:27:00,
2013-04-28 12:30:00,67.7,33.5,30.25,WNW,288,8.0,15.0,28,0.00,,,0.00,VWS V14.01,2013-04-28 16:30:00,
2013-04-28 12:32:00,67.3,32.2,30.25,West,274,6.0,12.0,27,0.00,,,0.00,VWS V14.01,2013-04-28 16:32:00,
2013-04-28 12:37:00,68.5,33.2,30.25,SSW,201,0.0,12.0,27,0.00,,,0.00,VWS V14.01,2013-04-28 16:37:00,
2013-04-28 12:42:00,69.0,33.7,30.25,West,259,0.0,12.0,27,0.00,,,0.00,VWS V14.01,2013-04-28 16:42:00,
2013-04-28 12:45:00,69.7,34.3,30.24,WSW,244,6.0,12.0,27,0.00,,,0.00,VWS V14.01,2013-04-28 16:45:00,
2013-04-28 12:47:00,68.8,33.5,30.24,NW,316,6.0,8.0,27,0.00,,,0.00,VWS V14.01,2013-04-28 16:47:00,
2013-04-28 12:52:00,70.0,33.6,30.24,West,280,12.0,12.0,26,0.00,,,0.00,VWS V14.01,2013-04-28 16:52:00,
2013-04-28 12:57:00,69.7,33.3,30.24,SW,214,0.0,15.0,26,0.00,,,0.00,VWS V14.01,2013-04-28 16:57:00,
2013-04-28 13:00:00,69.2,33.8,30.24,WNW,284,5.0,15.0,27,0.00,,,0.00,VWS V14.01,2013-04-28 17:00:00,
2013-04-28 13:02:00,68.7,33.4,30.24,WNW,297,5.0,8.0,27,0.00,,,0.00,VWS V14.01,2013-04-28 17:02:00,
2013-04-28 13:07:00,69.0,31.8,30.24,NE,37,5.0,10.0,25,0.00,,,0.00,VWS V14.01,2013-04-28 17:07:00,
2013-04-28 13:12:00,68.7,35.2,30.24,South,188,0.0,10.0,29,0.00,,,0.00,VWS V14.01,2013-04-28 17:12:00,
2013-04-28 13:15:00,69.3,33.9,30.24,WSW,257,3.0,10.0,27,0.00,,,0.00,VWS V14.01,2013-04-28 17:15:00,
2013-04-28 13:17:00,69.0,33.7,30.24,WNW,293,7.0,13.0,27,0.00,,,0.00,VWS V14.01,2013-04-28 17:17:00,
2013-04-28 13:22:00,68.7,33.4,30.24,WNW,296,0.0,14.0,27,0.00,,,0.00,VWS V14.01,2013-04-28 17:22:00,
2013-04-28 13:27:00,68.5,33.2,30.24,WNW,302,0.0,14.0,27,0.00,,,0.00,VWS V14.01,2013-04-28 17:27:00,
2013-04-28 13:30:00,69.0,33.7,30.24,WNW,298,7.0,14.0,27,0.00,,,0.00,VWS V14.01,2013-04-28 17:30:00,
2013-04-28 13:32:00,69.8,34.3,30.24,NW,311,0.0,9.0,27,0.00,,,0.00,VWS V14.01,2013-04-28 17:32:00,
2013-04-28 13:37:00,69.7,34.3,30.24,West,271,5.0,13.0,27,0.00,,,0.00,VWS V14.01,2013-04-28 17:37:00,
2013-04-28 13:42:00,69.3,33.9,30.24,North,355,8.0,13.0,27,0.00,,,0.00,VWS V14.01,2013-04-28 17:42:00,
2013-04-28 13:45:00,69.5,35.0,30.23,West,270,4.0,13.0,28,0.00,,,0.00,VWS V14.01,2013-04-28 17:45:00,
2013-04-28 13:47:00,69.7,37.7,30.23,NNE,22,0.0,12.0,31,0.00,,,0.00,VWS V14.01,2013-04-28 17:47:00,
2013-04-28 13:52:00,69.8,34.3,30.23,ENE,69,6.0,18.0,27,0.00,,,0.00,VWS V14.01,2013-04-28 17:52:00,
2013-04-28 13:57:00,69.5,33.1,30.23,SSW,211,7.0,18.0,26,0.00,,,0.00,VWS V14.01,2013-04-28 17:57:00,
2013-04-28 14:00:00,70.2,34.7,30.22,WSW,249,0.0,18.0,27,0.00,,,0.00,VWS V14.01,2013-04-28 18:00:00,
2013-04-28 14:02:00,70.5,34.0,30.22,West,272,4.0,11.0,26,0.00,,,0.00,VWS V14.01,2013-04-28 18:02:00,
2013-04-28 14:07:00,69.7,34.3,30.22,WNW,286,7.0,15.0,27,0.00,,,0.00,VWS V14.01,2013-04-28 18:07:00,
2013-04-28 14:12:00,68.8,33.5,30.22,West,270,14.0,18.0,27,0.00,,,0.00,VWS V14.01,2013-04-28 18:12:00,
2013-04-28 14:15:00,68.5,33.2,30.22,WSW,243,12.0,18.0,27,0.00,,,0.00,VWS V14.01,2013-04-28 18:15:00,
2013-04-28 14:17:00,68.3,33.1,30.22,WNW,288,7.0,12.0,27,0.00,,,0.00,VWS V14.01,2013-04-28 18:17:00,
2013-04-28 14:22:00,68.8,34.4,30.22,West,272,5.0,15.0,28,0.00,,,0.00,VWS V14.01,2013-04-28 18:22:00,
2013-04-28 14:27:00,68.5,33.2,30.22,WSW,245,6.0,15.0,27,0.00,,,0.00,VWS V14.01,2013-04-28 18:27:00,
2013-04-28 14:30:00,68.8,35.3,30.22,WSW,249,13.0,15.0,29,0.00,,,0.00,VWS V14.01,2013-04-28 18:30:00,
2013-04-28 14:32:00,68.7,34.3,30.22,WSW,256,10.0,16.0,28,0.00,,,0.00,VWS V14.01,2013-04-28 18:32:00,
2013-04-28 14:38:00,68.3,34.0,30.22,SW,233,6.0,16.0,28,0.00,,,0.00,VWS V14.01,2013-04-28 18:38:00,
2013-04-28 14:43:00,68.2,34.8,30.22,WSW,242,7.0,23.0,29,0.00,,,0.00,VWS V14.01,2013-04-28 18:43:00,
2013-04-28 14:45:00,68.2,33.9,30.22,NW,305,5.0,23.0,28,0.00,,,0.00,VWS V14.01,2013-04-28 18:45:00,
2013-04-28 14:48:00,68.5,33.2,30.22,West,273,11.0,13.0,27,0.00,,,0.00,VWS V14.01,2013-04-28 18:48:00,
2013-04-28 14:53:00,68.3,33.1,30.22,WSW,258,9.0,18.0,27,0.00,,,0.00,VWS V14.01,2013-04-28 18:53:00,
2013-04-28 14:58:00,68.8,33.5,30.21,WSW,247,8.0,18.0,27,0.00,,,0.00,VWS V14.01,2013-04-28 18:58:00,
2013-04-28 15:00:00,68.7,34.3,30.21,West,259,0.0,18.0,28,0.00,,,0.00,VWS V14.01,2013-04-28 19:00:00,
2013-04-28 15:03:00,68.8,34.4,30.21,WSW,242,5.0,10.0,28,0.00,,,0.00,VWS V14.01,2013-04-28 19:03:00,
2013-04-28 15:08:00,68.5,34.1,30.21,WSW,251,19.0,19.0,28,0.00,,,0.00,VWS V14.01,2013-04-28 19:08:00,
2013-04-28 15:13:00,68.3,35.7,30.21,WSW,257,9.0,19.0,30,0.00,,,0.00,VWS V14.01,2013-04-28 19:13:00,
2013-04-28 15:15:00,68.5,35.9,30.21,WNW,290,20.0,21.0,30,0.00,,,0.00,VWS V14.01,2013-04-28 19:15:00,
2013-04-28 15:18:00,68.5,34.1,30.21,West,259,12.0,20.0,28,0.00,,,0.00,VWS V14.01,2013-04-28 19:18:00,
2013-04-28 15:23:00,68.5,34.1,30.21,West,271,13.0,20.0,28,0.00,,,0.00,VWS V14.01,2013-04-28 19:23:00,
2013-04-28 15:28:00,68.0,33.7,30.21,WNW,284,13.0,20.0,28,0.00,,,0.00,VWS V14.01,2013-04-28 19:28:00,
2013-04-28 15:30:00,67.8,32.6,30.21,West,263,11.0,20.0,27,0.00,,,0.00,VWS V14.01,2013-04-28 19:30:00,
2013-04-28 15:33:00,67.8,33.5,30.21,West,268,13.0,19.0,28,0.00,,,0.00,VWS V14.01,2013-04-28 19:33:00,
2013-04-28 15:38:00,67.7,33.5,30.21,West,263,9.0,19.0,28,0.00,,,0.00,VWS V14.01,2013-04-28 19:38:00,
2013-04-28 15:43:00,68.0,32.8,30.20,WSW,257,12.0,19.0,27,0.00,,,0.00,VWS V14.01,2013-04-28 19:43:00,
2013-04-28 15:45:00,68.0,32.8,30.20,West,264,11.0,19.0,27,0.00,,,0.00,VWS V14.01,2013-04-28 19:45:00,
2013-04-28 15:48:00,68.2,33.9,30.20,WNW,286,4.0,11.0,28,0.00,,,0.00,VWS V14.01,2013-04-28 19:48:00,
2013-04-28 15:53:00,68.8,33.5,30.20,West,281,6.0,12.0,27,0.00,,,0.00,VWS V14.01,2013-04-28 19:53:00,
2013-04-28 15:58:00,68.2,32.0,30.20,SW,215,7.0,19.0,26,0.00,,,0.00,VWS V14.01,2013-04-28 19:58:00,
2013-04-28 16:00:00,68.2,33.0,30.20,West,259,8.0,19.0,27,0.00,,,0.00,VWS V14.01,2013-04-28 20:00:00,
2013-04-28 16:03:00,68.2,33.0,30.20,West,265,2.0,11.0,27,0.00,,,0.00,VWS V14.01,2013-04-28 20:03:00,
2013-04-28 16:08:00,67.8,32.6,30.20,NW,311,5.0,15.0,27,0.00,,,0.00,VWS V14.01,2013-04-28 20:08:00,
2013-04-28 16:13:00,68.2,33.9,30.19,North,360,0.0,15.0,28,0.00,,,0.00,VWS V14.01,2013-04-28 20:13:00,
2013-04-28 16:15:00,68.3,34.8,30.19,West,266,6.0,15.0,29,0.00,,,0.00,VWS V14.01,2013-04-28 20:15:00,
2013-04-28 16:18:00,67.8,33.5,30.19,SSW,204,0.0,16.0,28,0.00,,,0.00,VWS V14.01,2013-04-28 20:18:00,
2013-04-28 16:23:00,67.8,34.4,30.19,SE,126,0.0,16.0,29,0.00,,,0.00,VWS V14.01,2013-04-28 20:23:00,
2013-04-28 16:28:00,68.2,33.9,30.19,WNW,286,12.0,16.0,28,0.00,,,0.00,VWS V14.01,2013-04-28 20:28:00,
2013-04-28 16:30:00,68.2,33.9,30.19,WNW,303,9.0,16.0,28,0.00,,,0.00,VWS V14.01,2013-04-28 20:30:00,
2013-04-28 16:33:00,67.8,33.5,30.19,NNW,343,0.0,13.0,28,0.00,,,0.00,VWS V14.01,2013-04-28 20:33:00,
2013-04-28 16:38:00,67.5,34.2,30.19,West,277,0.0,19.0,29,0.00,,,0.00,VWS V14.01,2013-04-28 20:38:00,
2013-04-28 16:43:00,67.8,34.4,30.19,WSW,239,0.0,19.0,29,0.00,,,0.00,VWS V14.01,2013-04-28 20:43:00,
2013-04-28 16:45:00,67.8,35.3,30.19,West,262,0.0,19.0,30,0.00,,,0.00,VWS V14.01,2013-04-28 20:45:00,
2013-04-28 16:48:00,68.0,34.6,30.19,West,279,12.0,14.0,29,0.00,,,0.00,VWS V14.01,2013-04-28 20:48:00,
2013-04-28 16:53:00,67.7,32.5,30.19,WSW,244,13.0,16.0,27,0.00,,,0.00,VWS V14.01,2013-04-28 20:53:00,
2013-04-28 16:58:00,67.3,33.1,30.19,West,273,3.0,16.0,28,0.00,,,0.00,VWS V14.01,2013-04-28 20:58:00,
2013-04-28 17:00:00,67.3,34.0,30.19,WNW,286,9.0,16.0,29,0.00,,,0.00,VWS V14.01,2013-04-28 21:00:00,
2013-04-28 17:03:00,67.5,35.0,30.19,West,279,6.0,9.0,30,0.00,,,0.00,VWS V14.01,2013-04-28 21:03:00,
2013-04-28 17:08:00,67.3,34.0,30.19,West,262,1.0,12.0,29,0.00,,,0.00,VWS V14.01,2013-04-28 21:08:00,
2013-04-28 17:13:00,67.5,35.0,30.18,WNW,302,0.0,12.0,30,0.00,,,0.00,VWS V14.01,2013-04-28 21:13:00,
2013-04-28 17:15:00,67.5,35.0,30.18,NNW,336,0.0,12.0,30,0.00,,,0.00,VWS V14.01,2013-04-28 21:15:00,
2013-04-28 17:18:00,67.5,36.6,30.18,WNW,284,2.0,10.0,32,0.00,,,0.00,VWS V14.01,2013-04-28 21:18:00,
2013-04-28 17:23:00,67.3,35.7,30.18,West,260,0.0,10.0,31,0.00,,,0.00,VWS V14.01,2013-04-28 21:23:00,
2013-04-28 17:28:00,67.5,36.6,30.18,SW,232,10.0,10.0,32,0.00,,,0.00,VWS V14.01,2013-04-28 21:28:00,
2013-04-28 17:30:00,67.3,35.7,30.18,WSW,237,0.0,10.0,31,0.00,,,0.00,VWS V14.01,2013-04-28 21:30:00,
2013-04-28 17:33:00,67.2,35.6,30.18,NW,310,4.0,10.0,31,0.00,,,0.00,VWS V14.01,2013-04-28 21:33:00,
2013-04-28 17:38:00,67.0,34.6,30.18,WSW,254,4.0,14.0,30,0.00,,,0.00,VWS V14.01,2013-04-28 21:38:00,
2013-04-28 17:43:00,66.8,36.0,30.17,WSW,247,5.0,14.0,32,0.00,,,0.00,VWS V14.01,2013-04-28 21:43:00,
2013-04-28 17:45:00,66.8,36.0,30.17,West,269,8.0,14.0,32,0.00,,,0.00,VWS V14.01,2013-04-28 21:45:00,
2013-04-28 17:49:00,66.8,34.4,30.17,SW,215,8.0,13.0,30,0.00,,,0.00,VWS V14.01,2013-04-28 21:49:00,
2013-04-28 17:54:00,66.8,36.0,30.17,West,281,0.0,13.0,32,0.00,,,0.00,VWS V14.01,2013-04-28 21:54:00,
2013-04-28 17:59:00,66.7,34.3,30.17,West,276,7.0,14.0,30,0.00,,,0.00,VWS V14.01,2013-04-28 21:59:00,
2013-04-28 18:00:00,66.5,34.1,30.17,West,269,8.0,14.0,30,0.00,,,0.00,VWS V14.01,2013-04-28 22:00:00,
2013-04-28 18:04:00,66.3,34.8,30.17,West,267,7.0,13.0,31,0.00,,,0.00,VWS V14.01,2013-04-28 22:04:00,
2013-04-28 18:09:00,66.3,34.8,30.17,WNW,287,7.0,13.0,31,0.00,,,0.00,VWS V14.01,2013-04-28 22:09:00,
2013-04-28 18:14:00,66.2,34.7,30.17,WSW,239,6.0,13.0,31,0.00,,,0.00,VWS V14.01,2013-04-28 22:14:00,
2013-04-28 18:15:00,66.2,34.7,30.17,WNW,290,5.0,13.0,31,0.00,,,0.00,VWS V14.01,2013-04-28 22:15:00,
2013-04-28 18:19:00,66.2,34.7,30.17,West,265,0.0,15.0,31,0.00,,,0.00,VWS V14.01,2013-04-28 22:19:00,
2013-04-28 18:24:00,66.0,34.5,30.17,West,272,6.0,15.0,31,0.00,,,0.00,VWS V14.01,2013-04-28 22:24:00,
2013-04-28 18:29:00,66.0,35.3,30.17,SSW,211,6.0,15.0,32,0.00,,,0.00,VWS V14.01,2013-04-28 22:29:00,
2013-04-28 18:30:00,66.0,34.5,30.17,West,281,6.0,15.0,31,0.00,,,0.00,VWS V14.01,2013-04-28 22:30:00,
2013-04-28 18:34:00,65.9,34.4,30.17,West,263,5.0,16.0,31,0.00,,,0.00,VWS V14.01,2013-04-28 22:34:00,
2013-04-28 18:39:00,65.7,34.3,30.17,West,274,7.0,16.0,31,0.00,,,0.00,VWS V14.01,2013-04-28 22:39:00,
2013-04-28 18:44:00,65.7,34.3,30.16,WNW,294,0.0,16.0,31,0.00,,,0.00,VWS V14.01,2013-04-28 22:44:00,
2013-04-28 18:45:00,65.7,34.3,30.16,WNW,294,0.0,16.0,31,0.00,,,0.00,VWS V14.01,2013-04-28 22:45:00,
2013-04-28 18:49:00,65.5,34.9,30.16,NW,326,0.0,6.0,32,0.00,,,0.00,VWS V14.01,2013-04-28 22:49:00,
2013-04-28 18:54:00,65.5,33.3,30.16,West,266,5.0,7.0,30,0.00,,,0.00,VWS V14.01,2013-04-28 22:54:00,
2013-04-28 18:59:00,65.2,32.2,30.17,NNW,348,11.0,14.0,29,0.00,,,0.00,VWS V14.01,2013-04-28 22:59:00,
2013-04-28 19:00:00,65.2,31.3,30.17,NW,315,5.0,14.0,28,0.00,,,0.00,VWS V14.01,2013-04-28 23:00:00,
2013-04-28 19:04:00,64.9,31.0,30.17,WSW,247,10.0,13.0,28,0.00,,,0.00,VWS V14.01,2013-04-28 23:04:00,
2013-04-28 19:09:00,64.7,31.7,30.17,WNW,290,6.0,13.0,29,0.00,,,0.00,VWS V14.01,2013-04-28 23:09:00,
2013-04-28 19:14:00,64.4,31.5,30.18,WSW,237,0.0,13.0,29,0.00,,,0.00,VWS V14.01,2013-04-28 23:14:00,
2013-04-28 19:15:00,64.4,31.5,30.18,NNW,344,0.0,13.0,29,0.00,,,0.00,VWS V14.01,2013-04-28 23:15:00,
2013-04-28 19:19:00,64.2,30.4,30.18,West,267,0.0,12.0,28,0.00,,,0.00,VWS V14.01,2013-04-28 23:19:00,
2013-04-28 19:24:00,64.1,31.2,30.18,West,271,15.0,15.0,29,0.00,,,0.00,VWS V14.01,2013-04-28 23:24:00,
2013-04-28 19:28:00,63.9,31.9,30.17,West,267,0.0,18.0,30,0.00,,,0.00,VWS V14.01,2013-04-28 23:28:00,
2013-04-28 19:30:00,63.8,31.0,30.17,WNW,292,6.0,18.0,29,0.00,,,0.00,VWS V14.01,2013-04-28 23:30:00,
2013-04-28 19:33:00,63.6,29.9,30.17,NNE,26,0.0,10.0,28,0.00,,,0.00,VWS V14.01,2013-04-28 23:33:00,
2013-04-28 19:38:00,63.4,30.6,30.17,WSW,252,6.0,12.0,29,0.00,,,0.00,VWS V14.01,2013-04-28 23:38:00,
2013-04-28 19:43:00,63.3,31.4,30.18,NNW,340,0.0,12.0,30,0.00,,,0.00,VWS V14.01,2013-04-28 23:43:00,
2013-04-28 19:45:00,63.3,31.4,30.18,NNW,340,0.0,12.0,30,0.00,,,0.00,VWS V14.01,2013-04-28 23:45:00,
2013-04-28 19:48:00,63.1,30.4,30.18,West,277,0.0,7.0,29,0.00,,,0.00,VWS V14.01,2013-04-28 23:48:00,
2013-04-28 19:53:00,63.0,31.1,30.18,WNW,290,0.0,7.0,30,0.00,,,0.00,VWS V14.01,2013-04-28 23:53:00,
2013-04-28 19:58:00,62.8,30.9,30.18,WNW,297,0.0,7.0,30,0.00,,,0.00,VWS V14.01,2013-04-28 23:58:00,
2013-04-28 20:00:00,62.8,30.9,30.18,WNW,297,1.0,7.0,30,0.00,,,0.00,VWS V14.01,2013-04-29 00:00:00,
2013-04-28 20:03:00,62.6,30.8,30.18,NW,307,0.0,2.0,30,0.00,,,0.00,VWS V14.01,2013-04-29 00:03:00,
2013-04-28 20:08:00,62.5,31.5,30.18,NNW,336,3.0,7.0,31,0.00,,,0.00,VWS V14.01,2013-04-29 00:08:00,
2013-04-28 20:13:00,62.3,30.5,30.17,NW,323,0.0,8.0,30,0.00,,,0.00,VWS V14.01,2013-04-29 00:13:00,
2013-04-28 20:15:00,62.3,30.5,30.17,WNW,298,0.0,8.0,30,0.00,,,0.00,VWS V14.01,2013-04-29 00:15:00,
2013-04-28 20:18:00,62.2,30.4,30.17,NE,34,0.0,6.0,30,0.00,,,0.00,VWS V14.01,2013-04-29 00:18:00,
2013-04-28 20:23:00,62.0,30.2,30.17,West,276,7.0,8.0,30,0.00,,,0.00,VWS V14.01,2013-04-29 00:23:00,
2013-04-28 20:28:00,61.9,30.1,30.18,NNW,338,4.0,8.0,30,0.00,,,0.00,VWS V14.01,2013-04-29 00:28:00,
2013-04-28 20:30:00,61.9,30.1,30.18,East,90,0.0,8.0,30,0.00,,,0.00,VWS V14.01,2013-04-29 00:30:00,
2013-04-28 20:33:00,61.5,29.8,30.18,WNW,300,1.0,4.0,30,0.00,,,0.00,VWS V14.01,2013-04-29 00:33:00,
2013-04-28 20:38:00,61.4,29.7,30.18,NW,311,0.0,5.0,30,0.00,,,0.00,VWS V14.01,2013-04-29 00:38:00,
2013-04-28 20:43:00,61.2,31.1,30.18,NW,315,0.0,5.0,32,0.00,,,0.00,VWS V14.01,2013-04-29 00:43:00,
2013-04-28 20:45:00,61.2,31.1,30.18,NW,315,0.0,5.0,32,0.00,,,0.00,VWS V14.01,2013-04-29 00:45:00,
2013-04-28 20:48:00,61.1,31.8,30.18,NNW,342,0.0,6.0,33,0.00,,,0.00,VWS V14.01,2013-04-29 00:48:00,
2013-04-28 20:53:00,60.9,30.9,30.18,WNW,300,0.0,6.0,32,0.00,,,0.00,VWS V14.01,2013-04-29 00:53:00,
2013-04-28 20:58:00,60.8,30.0,30.19,NNW,341,0.0,6.0,31,0.00,,,0.00,VWS V14.01,2013-04-29 00:58:00,
2013-04-28 21:00:00,60.8,30.8,30.19,NNW,341,0.0,6.0,32,0.00,,,0.00,VWS V14.01,2013-04-29 01:00:00,
2013-04-28 21:03:00,60.8,30.8,30.19,NNW,341,0.0,1.0,32,0.00,,,0.00,VWS V14.01,2013-04-29 01:03:00,
2013-04-28 21:15:00,60.3,30.3,30.19,SW,225,1.0,7.0,32,0.00,,,0.00,VWS V14.01,2013-04-29 01:15:00,
2013-04-28 21:30:00,59.8,29.9,30.19,NNW,338,0.0,5.0,32,0.00,,,0.00,VWS V14.01,2013-04-29 01:30:00,
2013-04-28 21:43:00,60.3,30.3,30.19,SW,225,1.0,7.0,32,0.00,,,0.00,VWS V14.01,2013-04-29 01:43:00,
2013-04-28 21:45:00,59.5,30.4,30.20,NE,36,1.0,1.0,33,0.00,,,0.00,VWS V14.01,2013-04-29 01:45:00,
2013-04-28 21:48:00,59.4,31.8,30.20,North,360,0.0,5.0,35,0.00,,,0.00,VWS V14.01,2013-04-29 01:48:00,
2013-04-28 21:53:00,59.1,29.3,30.20,WNW,298,0.0,7.0,32,0.00,,,0.00,VWS V14.01,2013-04-29 01:53:00,
2013-04-28 21:58:00,59.1,29.3,30.21,North,5,0.0,7.0,32,0.00,,,0.00,VWS V14.01,2013-04-29 01:58:00,
2013-04-28 22:00:00,59.1,29.3,30.21,North,360,0.0,7.0,32,0.00,,,0.00,VWS V14.01,2013-04-29 02:00:00,
2013-04-28 22:03:00,58.9,28.3,30.21,WNW,293,2.0,6.0,31,0.00,,,0.00,VWS V14.01,2013-04-29 02:03:00,
2013-04-28 22:08:00,58.9,29.1,30.21,NW,315,0.0,6.0,32,0.00,,,0.00,VWS V14.01,2013-04-29 02:08:00,
2013-04-28 22:13:00,58.8,31.2,30.21,North,5,0.0,6.0,35,0.00,,,0.00,VWS V14.01,2013-04-29 02:13:00,
2013-04-28 22:15:00,58.8,30.5,30.21,North,5,0.0,6.0,34,0.00,,,0.00,VWS V14.01,2013-04-29 02:15:00,
2013-04-28 22:18:00,58.6,28.9,30.21,NE,40,0.0,7.0,32,0.00,,,0.00,VWS V14.01,2013-04-29 02:18:00,
2013-04-28 22:23:00,58.5,28.0,30.21,East,91,0.0,7.0,31,0.00,,,0.00,VWS V14.01,2013-04-29 02:23:00,
2013-04-28 22:28:00,58.5,28.8,30.21,North,355,2.0,7.0,32,0.00,,,0.00,VWS V14.01,2013-04-29 02:28:00,
2013-04-28 22:30:00,58.5,28.8,30.21,West,274,0.0,7.0,32,0.00,,,0.00,VWS V14.01,2013-04-29 02:30:00,
2013-04-28 22:33:00,58.3,27.8,30.21,NW,308,0.0,7.0,31,0.00,,,0.00,VWS V14.01,2013-04-29 02:33:00,
2013-04-28 22:38:00,58.2,26.9,30.21,WNW,298,5.0,9.0,30,0.00,,,0.00,VWS V14.01,2013-04-29 02:38:00,
2013-04-28 22:43:00,58.0,28.3,30.22,NW,315,5.0,9.0,32,0.00,,,0.00,VWS V14.01,2013-04-29 02:43:00,
2013-04-28 22:45:00,58.0,27.6,30.22,WNW,290,5.0,9.0,31,0.00,,,0.00,VWS V14.01,2013-04-29 02:45:00,
2013-04-28 22:48:00,58.0,27.6,30.22,WSW,248,0.0,7.0,31,0.00,,,0.00,VWS V14.01,2013-04-29 02:48:00,
2013-04-28 22:53:00,57.9,28.2,30.22,West,277,4.0,7.0,32,0.00,,,0.00,VWS V14.01,2013-04-29 02:53:00,
2013-04-28 22:58:00,57.7,28.1,30.22,WSW,250,0.0,7.0,32,0.00,,,0.00,VWS V14.01,2013-04-29 02:58:00,
2013-04-28 23:00:00,57.7,28.8,30.22,West,265,0.0,7.0,33,0.00,,,0.00,VWS V14.01,2013-04-29 03:00:00,
2013-04-28 23:03:00,57.7,28.8,30.22,West,269,0.0,10.0,33,0.00,,,0.00,VWS V14.01,2013-04-29 03:03:00,
2013-04-28 23:08:00,57.5,29.4,30.22,West,266,0.0,10.0,34,0.00,,,0.00,VWS V14.01,2013-04-29 03:08:00,
2013-04-28 23:13:00,57.4,29.3,30.23,WNW,292,0.0,10.0,34,0.00,,,0.00,VWS V14.01,2013-04-29 03:13:00,
2013-04-28 23:15:00,57.4,29.3,30.23,West,279,2.0,10.0,34,0.00,,,0.00,VWS V14.01,2013-04-29 03:15:00,
2013-04-28 23:18:00,57.4,30.0,30.23,WNW,284,0.0,7.0,35,0.00,,,0.00,VWS V14.01,2013-04-29 03:18:00,
2013-04-28 23:23:00,57.2,29.8,30.23,West,262,5.0,7.0,35,0.00,,,0.00,VWS V14.01,2013-04-29 03:23:00,
2013-04-28 23:28:00,57.2,30.5,30.23,North,5,0.0,7.0,36,0.00,,,0.00,VWS V14.01,2013-04-29 03:28:00,
2013-04-28 23:30:00,57.2,30.5,30.23,North,5,0.0,7.0,36,0.00,,,0.00,VWS V14.01,2013-04-29 03:30:00,
2013-04-28 23:33:00,57.1,30.4,30.23,West,280,0.0,5.0,36,0.00,,,0.00,VWS V14.01,2013-04-29 03:33:00,
2013-04-28 23:38:00,57.1,31.1,30.23,NNW,329,0.0,5.0,37,0.00,,,0.00,VWS V14.01,2013-04-29 03:38:00,
2013-04-28 23:43:00,56.9,30.9,30.23,West,275,0.0,7.0,37,0.00,,,0.00,VWS V14.01,2013-04-29 03:43:00,
2013-04-28 23:45:00,56.9,30.9,30.23,WNW,298,0.0,7.0,37,0.00,,,0.00,VWS V14.01,2013-04-29 03:45:00,
2013-04-28 23:48:00,56.8,32.1,30.23,WNW,299,0.0,5.0,39,0.00,,,0.00,VWS V14.01,2013-04-29 03:48:00,
2013-04-28 23:53:00,56.6,32.6,30.23,North,355,3.0,6.0,40,0.00,,,0.00,VWS V14.01,2013-04-29 03:53:00,
2013-04-28 23:58:00,56.5,32.5,30.23,NNW,335,0.0,6.0,40,0.00,,,0.00,VWS V14.01,2013-04-29 03:58:00,